Weather History for Yellowstone, WY

Change the Weather History Date:

Friday, March 29, 2013

  Actual Average Record
Temperature  
Mean Temperature 30 °F 27 °F  
Max Temperature 45 °F 40 °F 45 °F (2013)
Min Temperature 14 °F 13 °F -14 °F (2008)
Degree Days  
Heating Degree Days 35 38  
Month to date heating degree days 1328 1226  
Since 1 July heating degree days 9195 9163  
Cooling Degree Days 0 0  
Month to date cooling degree days 0 0  
Year to date cooling degree days 0 0  
Moisture  
Dew Point 22 °F    
Average Humidity 68    
Maximum Humidity 92    
Minimum Humidity 43    
Precipitation  
Precipitation 0.21 in 0.04 in 0.76 in (2014)
Month to date precipitation 2.30 1.11  
Year to date precipitation 4.64 4.63  
Sea Level Pressure  
Sea Level Pressure 30.23 in    
Wind  
Wind Speed 2 mph (West)    
Max Wind Speed 13 mph    
Max Gust Speed 23 mph    
T = Trace of Precipitation, MM = Missing Value Source: NWS Daily Summary

Daily Weather History Graph

Daily Weather History Graph

Search for Another Location

Airport:

Trip Planner

Search our weather history database for the weather conditions in past years. The results will help you decide how hot, cold, wet, or windy it might be!

Date:

Astronomy

Mar. 29, 2013 Rise Set
Actual Time 7:07 AM MDT 7:45 PM MDT
Civil Twilight 6:38 AM MDT 8:15 PM MDT
Nautical Twilight 6:03 AM MDT 8:50 PM MDT
Astronomical Twilight 5:27 AM MDT 9:26 PM MDT
Moon 10:58 PM MDT (3/29) 8:11 AM MDT (3/29)
Length of Visible Light 13h 36m
Length of Day
12h 38m
Waning Gibbous, 93% of the Moon is Illuminated
Mar 29
Waning Gibbous
Apr 2
Last Quarter
Apr 10
New
Apr 18
First Quarter
Apr 25
Full

Hourly Weather History & Observations

Time (MDT) Temp. Windchill Dew Point Humidity Pressure Visibility Wind Dir Wind Speed Gust Speed Precip Events Conditions
12:56 AM 19.9 °F - 15.1 °F 81% 30.22 in - Calm Calm - N/A   Unknown
1:56 AM 19.9 °F - 15.1 °F 81% 30.20 in - Calm Calm - N/A   Unknown
2:56 AM 19.9 °F - 15.1 °F 81% 30.18 in - Calm Calm - N/A   Unknown
3:56 AM 19.9 °F - 15.1 °F 81% 30.17 in - Calm Calm - N/A   Unknown
4:56 AM 17.1 °F - 12.9 °F 84% 30.18 in - Calm Calm - N/A   Unknown
5:56 AM 17.1 °F - 12.9 °F 84% 30.19 in - Calm Calm - N/A   Unknown
6:56 AM 18.0 °F - 14.0 °F 84% 30.21 in - Calm Calm - N/A   Unknown
7:56 AM 19.9 °F - 16.0 °F 85% 30.27 in - Calm Calm - N/A   Unknown
8:56 AM 26.1 °F - 18.0 °F 71% 30.27 in - Calm Calm - N/A   Unknown
9:56 AM 26.1 °F - 19.0 °F 75% 30.28 in - Calm Calm - N/A   Unknown
10:56 AM 28.0 °F - 19.9 °F 72% 30.28 in - Calm Calm - N/A   Unknown
11:56 AM 28.9 °F - 26.1 °F 89% 30.27 in - Calm Calm - 0.05 in   Unknown
12:56 PM 33.1 °F 30.0 °F 30.0 °F 89% 30.26 in - Variable 3.5 mph - 0.03 in   Unknown
1:56 PM 41.0 °F 38.0 °F 27.0 °F 57% 30.21 in - Variable 4.6 mph - N/A   Unknown
2:56 PM 43.0 °F 40.3 °F 23.0 °F 45% 30.18 in - Variable 4.6 mph - N/A   Unknown
3:56 PM 42.1 °F 37.1 °F 21.9 °F 45% 30.19 in - West 8.1 mph - N/A   Unknown
4:56 PM 39.9 °F 35.8 °F 24.1 °F 53% 30.21 in - Variable 5.8 mph 16.1 mph N/A   Unknown
5:56 PM 39.9 °F 35.8 °F 25.0 °F 55% 30.22 in - WNW 5.8 mph 17.3 mph N/A   Unknown
6:56 PM 39.0 °F 35.7 °F 25.0 °F 57% 30.23 in - Variable 4.6 mph - N/A   Unknown
7:56 PM 37.0 °F 33.3 °F 27.0 °F 67% 30.23 in - Variable 4.6 mph - N/A   Unknown
8:56 PM 34.0 °F 28.8 °F 30.0 °F 85% 30.24 in - Variable 5.8 mph - N/A   Unknown
9:56 PM 32.0 °F - 30.0 °F 92% 30.25 in - Calm Calm - 0.03 in   Unknown
10:56 PM 32.0 °F - 30.9 °F 96% 30.25 in - Calm Calm - 0.05 in   Unknown
11:56 PM 32.0 °F - 30.9 °F 96% 30.23 in - Calm Calm - 0.05 in   Unknown